FW3278 Weather Reports


Display with metric or nautical units.
time (UTC)temp
F
wind
direction
speed
MPH
gust
MPH
rain 1hr
in
rain 24hr
in
rain mn
in
humidity
%
barometer
mb
20260507051805 50 157 1.0 3.0 0.00 1.00 0.46 86 1021.2
20260507050905 50 157 2.0 5.0 0.00 1.00 0.46 86 1021.1
20260507050005 50 157 1.0 8.0 0.00 1.00 0.46 86 1021.0
20260507045404 50 157 1.0 6.0 0.00 1.00 0.46 86 1021.0
20260507044504 50 157 2.0 4.0 0.00 1.00 0.46 85 1021.1
20260507043604 50 157 2.0 10.0 0.01 1.00 0.46 85 1021.1
20260507042704 51 157 1.0 6.0 0.02 1.00 0.46 86 1021.0
20260507041805 51 157 1.0 5.0 0.02 1.00 0.46 86 1021.1
20260507040904 50 157 1.0 4.0 0.02 1.00 0.46 87 1021.0
20260507040005 50 157 1.0 5.0 0.02 1.00 0.46 86 1021.0
20260507035405 50 157 1.0 6.0 0.02 1.00 0.46 84 1021.0
20260507034505 51 157 1.0 8.0 0.02 1.00 0.46 81 1021.1
20260507033604 52 157 1.0 5.0 0.01 0.99 0.45 80 1021.0
20260507032704 52 157 1.0 4.0 0.00 0.98 0.44 79 1021.0
20260507031805 52 157 1.0 4.0 0.00 0.98 0.44 78 1020.9
20260507030904 53 157 2.0 5.0 0.02 0.98 0.44 78 1021.1
20260507030004 52 157 1.0 5.0 0.03 0.98 0.44 81 1021.0
20260507025425 52 157 1.0 5.0 0.03 0.98 0.44 82 1021.0
20260507024504 51 157 2.0 5.0 0.03 0.98 0.44 86 1021.1
20260507023604 50 157 2.0 8.0 0.03 0.98 0.44 85 1021.1
20260507022726 49 157 1.0 9.0 0.03 0.98 0.44 85 1021.2
20260507021804 49 157 3.0 8.0 0.03 0.98 0.44 82 1021.3
20260507020905 50 157 2.0 10.0 0.01 0.96 0.42 79 1021.3
20260507020025 50 157 2.0 8.0 0.00 0.95 0.41 81 1021.1
20260507015404 50 157 3.0 10.0 0.00 0.95 0.41 85 1021.1
20260507014504 50 157 2.0 11.0 0.00 0.95 0.41 84 1021.1
20260507013605 49 157 2.0 8.0 0.00 0.95 0.41 83 1021.0
20260507012704 49 157 2.0 12.0 0.00 0.95 0.41 86 1020.9
20260507011804 48 157 3.0 12.0 0.00 0.95 0.41 89 1021.1
20260507010904 48 157 3.0 9.0 0.00 0.95 0.41 90 1021.1
20260507010004 48 157 3.0 9.0 0.00 0.95 0.41 91 1021.1
20260507005404 48 157 3.0 12.0 0.00 0.95 0.41 91 1021.1
20260507004505 47 157 4.0 12.0 0.00 0.95 0.41 92 1021.1
20260507003625 47 157 3.0 10.0 0.00 0.95 0.41 93 1021.0
20260507002704 46 157 2.0 6.0 0.00 0.95 0.41 94 1020.9
20260507001804 46 157 2.0 8.0 0.00 0.95 0.41 94 1020.8
20260507000904 45 157 1.0 3.0 0.00 0.95 0.41 94 1020.8
20260507000004 44 157 1.0 4.0 0.00 0.95 0.41 94 1020.7
20260506235404 44 157 2.0 5.0 0.00 0.95 0.41 94 1020.6
20260506234504 43 157 2.0 9.0 0.01 0.95 0.41 94 1020.5
20260506233604 44 157 3.0 11.0 0.01 0.95 0.41 94 1020.5
20260506232705 44 157 1.0 8.0 0.01 0.95 0.41 94 1020.8
20260506231804 43 0 0.0 1.0 0.01 0.95 0.41 95 1020.4
20260506230904 43 0 0.0 1.0 0.01 0.95 0.41 94 1020.5
20260506230004 43 295 0.0 1.0 0.01 0.95 0.41 94 1020.5
20260506225404 43 286 0.0 4.0 0.01 0.95 0.41 94 1020.4
20260506224504 43 168 1.0 4.0 0.00 0.94 0.40 94 1020.4
20260506223604 44 157 1.0 4.0 0.00 0.94 0.40 94 1020.0
20260506222704 43 157 1.0 5.0 0.00 0.94 0.40 94 1020.1
20260506221804 43 157 0.0 3.0 0.00 0.94 0.40 95 1019.8
20260506220904 41 0 0.0 1.0 0.00 0.94 0.40 94 1019.8
20260506220004 41 0 0.0 0.0 0.01 0.94 0.40 94 1019.8
20260506215404 41 0 0.0 1.0 0.02 0.94 0.40 94 1019.7
20260506214504 41 56 0.0 1.0 0.03 0.94 0.40 93 1019.5
20260506213604 41 56 1.0 2.0 0.03 0.94 0.40 93 1019.4
20260506212704 41 23 1.0 7.0 0.03 0.94 0.40 94 1019.3
20260506211804 42 21 1.0 7.0 0.03 0.94 0.40 94 1019.2
20260506210904 42 316 2.0 4.0 0.03 0.94 0.40 94 1018.7
20260506210004 41 282 1.0 8.0 0.02 0.94 0.39 94 1018.7
20260506205404 41 304 0.0 8.0 0.01 0.93 0.38 93 1018.6
20260506204504 41 349 0.0 2.0 0.00 0.92 0.37 93 1018.3
20260506203604 41 347 1.0 2.0 0.05 0.92 0.37 93 1018.1
20260506202704 41 325 1.0 4.0 0.10 0.92 0.37 93 1018.0
20260506201804 40 319 2.0 4.0 0.11 0.92 0.37 93 1017.9
20260506200904 40 294 3.0 8.0 0.11 0.92 0.37 93 1017.9
20260506200025 40 315 2.0 9.0 0.11 0.92 0.37 93 1018.1
20260506195404 40 325 1.0 5.0 0.11 0.92 0.37 93 1018.0
20260506194504 40 230 0.0 2.0 0.11 0.92 0.37 92 1018.2
20260506193604 40 267 1.0 6.0 0.06 0.87 0.32 93 1018.3
20260506192704 40 312 1.0 7.0 0.03 0.82 0.28 92 1017.7
20260506191825 40 340 1.0 7.0 0.04 0.81 0.27 92 1017.2
20260506190904 40 323 2.0 6.0 0.06 0.81 0.27 92 1017.4
20260506190025 40 315 2.0 4.0 0.06 0.81 0.27 92 1017.4
20260506185404 40 292 3.0 10.0 0.06 0.81 0.27 92 1017.4
20260506184505 41 280 2.0 9.0 0.07 0.81 0.27 92 1017.7
20260506183604 41 300 2.0 9.0 0.09 0.81 0.27 92 1018.1
20260506182704 41 16 2.0 9.0 0.09 0.79 0.25 92 1018.1
20260506181804 41 275 1.0 13.0 0.11 0.77 0.23 91 1018.0
20260506180904 41 292 1.0 5.0 0.10 0.75 0.21 91 1017.6
20260506180005 41 304 1.0 4.0 0.10 0.75 0.21 91 1017.5
20260506175404 41 314 1.0 4.0 0.11 0.75 0.21 91 1017.5
20260506174504 41 294 2.0 7.0 0.13 0.74 0.20 90 1017.7
20260506173604 42 13 3.0 11.0 0.11 0.72 0.18 90 1017.9
20260506172704 42 287 4.0 15.0 0.09 0.70 0.16 90 1017.9
20260506171804 42 280 2.0 15.0 0.05 0.66 0.12 89 1017.7
20260506170904 42 283 2.0 11.0 0.04 0.65 0.11 89 1017.5
20260506170004 43 345 2.0 9.0 0.04 0.65 0.11 89 1017.6
20260506165425 43 306 2.0 9.0 0.04 0.64 0.10 89 1017.6
20260506164504 43 290 3.0 10.0 0.01 0.61 0.07 89 1017.3
20260506163604 43 284 2.0 8.0 0.01 0.61 0.07 89 1017.4
20260506162704 43 287 3.0 10.0 0.01 0.61 0.07 89 1017.4
20260506161804 43 287 2.0 8.0 0.01 0.61 0.07 90 1017.3
20260506160904 43 282 2.0 9.0 0.01 0.61 0.07 90 1017.3
20260506160025 43 277 2.0 8.0 0.02 0.61 0.07 90 1017.3
20260506155404 43 286 1.0 8.0 0.03 0.60 0.06 89 1017.3
20260506154504 43 293 1.0 5.0 0.05 0.60 0.06 89 1017.4
20260506153604 43 280 2.0 9.0 0.06 0.60 0.06 88 1017.5
20260506152704 43 283 2.0 8.0 0.06 0.60 0.06 88 1017.6
20260506151804 43 277 2.0 11.0 0.06 0.60 0.06 87 1017.6
20260506150904 44 200 1.0 8.0 0.06 0.60 0.06 86 1017.5
20260506150004 44 157 1.0 4.0 0.05 0.59 0.05 84 1017.5
20260506145404 45 157 1.0 4.0 0.03 0.57 0.03 83 1017.9
20260506144504 45 157 1.0 10.0 0.01 0.55 0.01 83 1017.6
20260506143604 46 157 2.0 10.0 0.00 0.54 0.00 82 1017.9
20260506142704 46 157 2.0 9.0 0.00 0.54 0.00 81 1017.5
20260506141804 46 157 3.0 12.0 0.00 0.54 0.00 81 1017.3
20260506140925 46 157 4.0 12.0 0.00 0.54 0.00 81 1017.2
20260506140005 46 157 4.0 11.0 0.00 0.54 0.00 80 1017.2
20260506135404 46 157 4.0 15.0 0.00 0.54 0.54 79 1017.2
20260506134504 46 157 3.0 12.0 0.00 0.54 0.54 79 1017.2
20260506133604 46 157 6.0 12.0 0.00 0.54 0.54 79 1017.2
20260506132704 46 157 6.0 18.0 0.00 0.54 0.54 80 1017.0
20260506131804 46 157 5.0 16.0 0.00 0.54 0.54 82 1017.0
20260506130904 46 157 4.0 16.0 0.00 0.54 0.54 84 1017.1
20260506130025 46 157 5.0 11.0 0.00 0.54 0.54 85 1017.1
20260506125404 47 157 5.0 22.0 0.00 0.54 0.54 85 1016.9
20260506124504 46 157 5.0 17.0 0.00 0.54 0.54 87 1016.8
20260506123625 47 157 5.0 17.0 0.00 0.54 0.54 90 1016.7
20260506122704 47 157 5.0 13.0 0.00 0.54 0.54 91 1016.7
20260506121804 47 157 4.0 14.0 0.00 0.54 0.54 92 1016.6
20260506120904 47 157 4.0 12.0 0.01 0.54 0.54 93 1016.6
20260506120004 48 157 3.0 12.0 0.02 0.54 0.54 93 1016.7
20260506115404 48 157 2.0 10.0 0.02 0.54 0.54 93 1016.6
20260506114504 48 157 2.0 8.0 0.04 0.54 0.54 93 1016.5
20260506113604 48 157 3.0 10.0 0.07 0.54 0.54 93 1016.4
20260506112704 49 157 3.0 19.0 0.11 0.54 0.54 93 1016.3
20260506111825 49 157 2.0 14.0 0.17 0.54 0.54 93 1016.3
20260506110903 49 157 2.0 10.0 0.20 0.53 0.53 93 1016.3
20260506110004 49 157 3.0 11.0 0.21 0.52 0.52 93 1016.3
20260506105404 50 157 3.0 16.0 0.26 0.52 0.52 92 1016.2
20260506104525 50 157 3.0 16.0 0.25 0.50 0.50 92 1016.0
20260506103625 51 157 3.0 11.0 0.22 0.47 0.47 92 1016.0
20260506102703 51 157 4.0 11.0 0.18 0.43 0.43 92 1015.7
20260506101804 51 157 3.0 15.0 0.13 0.37 0.37 92 1015.8
20260506095405 53 157 3.0 11.0 0.09 0.27 0.27 92 1015.5
20260506094505 53 157 4.0 12.0 0.11 0.26 0.26 92 1014.8
20260506093605 53 157 3.0 13.0 0.14 0.26 0.26 92 1014.8
20260506092705 53 157 4.0 9.0 0.17 0.26 0.26 91 1014.6
20260506091805 53 157 5.0 13.0 0.23 0.25 0.25 91 1014.6
20260506090905 54 157 6.0 14.0 0.23 0.24 0.24 91 1014.8
20260506090005 54 157 6.0 16.0 0.20 0.20 0.20 90 1014.9
20260506085405 54 157 5.0 16.0 0.18 0.18 0.18 90 1015.1
20260506084505 54 157 5.0 16.0 0.15 0.15 0.15 88 1014.9
20260506083605 54 157 3.0 15.0 0.12 0.12 0.12 87 1014.9
20260506082726 55 157 3.0 8.0 0.09 0.09 0.09 85 1014.8
20260506081805 56 157 5.0 11.0 0.02 0.02 0.02 82 1014.9
20260506080905 56 157 5.0 11.0 0.01 0.01 0.01 79 1014.3
20260506072726 57 157 7.0 17.0 0.00 0.00 0.00 74 1013.7
20260506071805 57 157 8.0 16.0 0.00 0.00 0.00 73 1013.6
20260506070905 58 157 9.0 20.0 0.00 0.00 0.00 72 1013.7
20260506061805 60 157 9.0 19.0 0.00 0.00 0.00 68 1014.3
20260506060904 60 157 9.0 22.0 0.00 0.00 0.00 67 1014.3